(297337) = 1999 WH13 = 1995 WY10

Discovered at Kitt Peak on 1999-11-30 by Spacewatch.

Orbit

Orbit type: Main Belt

Note: WebGL enabled browser required.

epoch2023-09-13.0
epoch JD2460200.5
perihelion date2023-03-23.97444
perihelion JD2460027.47444
argument of perihelion (°)88.04879
ascending node (°)229.02741
inclination (°)2.64918
eccentricity0.0849998
perihelion distance (AU)2.3241164
Tisserand w.r.t. Jupiter3.4
ΔV w.r.t. Earth (km/sec)9.6
semimajor axis (AU)2.5400174
mean anomaly (°)42.12686
mean daily motion (°/day)0.24347190
aphelion distance (AU)2.756
period (years)4.05
P-vector [x]0.73145360
P-vector [y]-0.64256056
P-vector [z]-0.22823575
Q-vector [x]0.68099764
Q-vector [y]0.67123136
Q-vector [z]0.29272969
absolute magnitude16.2
phase slope0.15
uncertainty0
referenceMPEC 2024-A48
observations used811
oppositions16
arc length (days)10249
first opposition used1995
last opposition used2023
residual rms (arc-secs)0.73
perturbers coarse indicatorM-v
perturbers precise indicator003Ek
first observation date used1995-11-14.0
last observation date used2023-12-06.0
computer nameMPCLINUX
JD of orbit computation2456847.606043
perihelion JD uncertainty (days)1.3461E-04
argument of perihelion uncertainty (°)6.8446E-05
ascending node uncertainty (°)5.9672E-05
inclination uncertainty (°)5.2253E-06
eccentricity uncertainty 3.6712E-08
perihelion distance uncertainty (AU)1.0140E-07
Minimum Orbit Intersection Distances (in AU)
for orbit epoch: 2460200.5, reference: E2024-A48
Mercury1.89723
Venus1.60093
Earth1.3119
Mars0.93063
Jupiter2.44153
Saturn6.35275
Uranus15.7174
Neptune27.3211

Observations

830 total observations over interval: 1995 11 14.29775 – 2023 12 06.201239
These data are available for download (format description).

Date (UT) J2000 RA J2000 Dec Magn Location Ref
1995 11 14.29775 03 32 39.41 +18 46 52.3 19.5 V 691 – Steward Observatory, Kitt Peak-Spacewatch MPS 79625
1995 11 14.32671 03 32 37.64 +18 46 44.2 19.4 V 691 – Steward Observatory, Kitt Peak-Spacewatch MPS 79625
1995 11 14.35738 03 32 35.78 +18 46 35.9 19.0 V 691 – Steward Observatory, Kitt Peak-Spacewatch MPS 79625
1995 11 16.29330 03 30 41.07 +18 37 43.5 19.5 V 691 – Steward Observatory, Kitt Peak-Spacewatch MPC 26308
1995 11 16.30311 03 30 40.47 +18 37 40.6   691 – Steward Observatory, Kitt Peak-Spacewatch MPC 26308
1995 11 16.31635 03 30 39.62 +18 37 37.1   691 – Steward Observatory, Kitt Peak-Spacewatch MPC 26308
1995 11 19.33823 03 27 40.83 +18 23 39.1   691 – Steward Observatory, Kitt Peak-Spacewatch MPC 26309
1995 11 19.36307 03 27 39.28 +18 23 32.3 19.6 V 691 – Steward Observatory, Kitt Peak-Spacewatch MPC 26309
1995 11 19.38529 03 27 37.93 +18 23 25.8   691 – Steward Observatory, Kitt Peak-Spacewatch MPC 26309
1999 10 06.37007 03 33 43.99 +19 51 01.6 19.8   704 – Lincoln Laboratory ETS, New Mexico MPS 15612
1999 10 06.38328 03 33 43.68 +19 51 00.7 19.9   704 – Lincoln Laboratory ETS, New Mexico MPS 15612
1999 10 06.39647 03 33 43.40 +19 50 58.5 20.0   704 – Lincoln Laboratory ETS, New Mexico MPS 15612
1999 10 06.40965 03 33 43.10 +19 50 55.8 20.7   704 – Lincoln Laboratory ETS, New Mexico MPS 15612
1999 10 06.42316 03 33 42.70 +19 50 54.7 20.3   704 – Lincoln Laboratory ETS, New Mexico MPS 15612
1999 11 09.30574 03 08 46.77 +17 42 33.9 18.4   704 – Lincoln Laboratory ETS, New Mexico MPS 8831
1999 11 09.32016 03 08 45.87 +17 42 29.3 18.2   704 – Lincoln Laboratory ETS, New Mexico MPS 8831
1999 11 09.33454 03 08 45.04 +17 42 25.8 18.4   704 – Lincoln Laboratory ETS, New Mexico MPS 8831
1999 11 09.34901 03 08 44.13 +17 42 21.2 18.4   704 – Lincoln Laboratory ETS, New Mexico MPS 8831
1999 11 10.37125 03 07 44.60 +17 37 10.6 19.3 V 691 – Steward Observatory, Kitt Peak-Spacewatch MPS 8831
1999 11 10.39359 03 07 43.26 +17 37 03.7 19.6 V 691 – Steward Observatory, Kitt Peak-Spacewatch MPS 8831
1999 11 10.41558 03 07 41.93 +17 36 57.0 19.5 V 691 – Steward Observatory, Kitt Peak-Spacewatch MPS 8831
1999 11 12.28961 03 05 53.18 +17 27 25.5 19.0   704 – Lincoln Laboratory ETS, New Mexico MPS 8831
1999 11 12.30395 03 05 52.35 +17 27 20.3 19.4   704 – Lincoln Laboratory ETS, New Mexico MPS 8831
1999 11 12.31843 03 05 51.46 +17 27 16.7 19.3   704 – Lincoln Laboratory ETS, New Mexico MPS 8831
1999 11 12.33273 03 05 50.54 +17 27 11.7 20.1   704 – Lincoln Laboratory ETS, New Mexico MPS 8831
1999 11 12.34703 03 05 49.71 +17 27 06.3 19.2   704 – Lincoln Laboratory ETS, New Mexico MPS 8831
1999 11 14.37747 03 03 52.45 +17 16 45.8 19.6 V 691 – Steward Observatory, Kitt Peak-Spacewatch MPS 8831
1999 11 14.39963 03 03 51.13 +17 16 38.9 19.7 V 691 – Steward Observatory, Kitt Peak-Spacewatch MPS 8831
1999 11 14.42178 03 03 49.82 +17 16 32.1 19.7 V 691 – Steward Observatory, Kitt Peak-Spacewatch MPS 8831
1999 11 30.26968 02 50 08.14 +16 00 32.0 21.8 V 691 – Steward Observatory, Kitt Peak-Spacewatch MPS 7922
1999 11 30.29132 02 50 07.15 +16 00 26.6 21.5 V 691 – Steward Observatory, Kitt Peak-Spacewatch MPS 7922
1999 11 30.31323 02 50 06.15 +16 00 20.5 20.8 V 691 – Steward Observatory, Kitt Peak-Spacewatch MPS 7922
1999 12 04.17171 02 47 27.61 +15 44 39.5 21.2 V 691 – Steward Observatory, Kitt Peak-Spacewatch MPS 7922
1999 12 04.19373 02 47 26.75 +15 44 35.4 21.2 V 691 – Steward Observatory, Kitt Peak-Spacewatch MPS 7922
1999 12 04.21805 02 47 25.78 +15 44 29.6 21.0 V 691 – Steward Observatory, Kitt Peak-Spacewatch MPS 7922
1999 12 07.16944 02 45 39.04 +15 33 36.8 19.8   704 – Lincoln Laboratory ETS, New Mexico MPS 16662
1999 12 07.19927 02 45 37.98 +15 33 31.7 19.4   704 – Lincoln Laboratory ETS, New Mexico MPS 16662
1999 12 07.21417 02 45 37.49 +15 33 27.9 19.6   704 – Lincoln Laboratory ETS, New Mexico MPS 16662
1999 12 17.07146 02 41 23.19 +15 05 22.6 20.8 V 691 – Steward Observatory, Kitt Peak-Spacewatch MPS 16662
1999 12 17.09420 02 41 22.75 +15 05 19.4 20.6 V 691 – Steward Observatory, Kitt Peak-Spacewatch MPS 16662
1999 12 17.11613 02 41 22.33 +15 05 16.4 20.7 V 691 – Steward Observatory, Kitt Peak-Spacewatch MPS 16662
2003 10 24.26837 02 55 38.82 +17 26 31.9 19.5   704 – Lincoln Laboratory ETS, New Mexico MPS 87721
2003 10 24.29283 02 55 37.47 +17 26 25.3 20.1   704 – Lincoln Laboratory ETS, New Mexico MPS 87721
2003 10 24.30464 02 55 36.81 +17 26 21.5 20.0   704 – Lincoln Laboratory ETS, New Mexico MPS 87721
2003 10 24.31666 02 55 36.15 +17 26 18.3 20.0   704 – Lincoln Laboratory ETS, New Mexico MPS 87721
2003 10 29.26110 02 51 08.36 +17 01 26.2 19.2   704 – Lincoln Laboratory ETS, New Mexico MPS 89275
2003 10 29.27424 02 51 07.53 +17 01 23.5 19.6   704 – Lincoln Laboratory ETS, New Mexico MPS 89275
2003 10 29.28650 02 51 06.82 +17 01 19.7 19.7   704 – Lincoln Laboratory ETS, New Mexico MPS 89275
2003 10 29.29827 02 51 06.16 +17 01 16.9 19.6   704 – Lincoln Laboratory ETS, New Mexico MPS 89275
2003 11 18.23867 02 32 45.23 +15 13 37.0 19.7   644 – Palomar Mountain/NEAT MPS 90880
2003 11 18.26086 02 32 44.09 +15 13 30.1 19.4   644 – Palomar Mountain/NEAT MPS 90880
2003 11 18.28065 02 32 43.03 +15 13 23.7 19.6   644 – Palomar Mountain/NEAT MPS 90880
2003 11 21.21493 02 30 20.48 +14 58 32.4 20.3   704 – Lincoln Laboratory ETS, New Mexico MPS 91688
2003 11 21.22818 02 30 19.88 +14 58 28.4 20.4   704 – Lincoln Laboratory ETS, New Mexico MPS 91688
2003 11 21.23369 02 30 19.66 +14 58 25.9 20.0 V 691 – Steward Observatory, Kitt Peak-Spacewatch MPS 91688
2003 11 21.25394 02 30 18.60 +14 58 21.0 20.1   704 – Lincoln Laboratory ETS, New Mexico MPS 91688
2003 11 21.26579 02 30 18.02 +14 58 18.2 19.5 R 699 – Lowell Observatory-LONEOS MPS 92602
2003 11 21.26591 02 30 18.08 +14 58 16.4 19.8 V 691 – Steward Observatory, Kitt Peak-Spacewatch MPS 91688
2003 11 21.27893 02 30 17.47 +14 58 12.1   699 – Lowell Observatory-LONEOS MPS 92602
2003 11 21.29210 02 30 16.77 +14 58 08.3   699 – Lowell Observatory-LONEOS MPS 92602
2003 11 21.29260 02 30 16.77 +14 58 08.4 19.9 V 691 – Steward Observatory, Kitt Peak-Spacewatch MPS 91688
2003 11 21.30532 02 30 16.17 +14 58 05.4   699 – Lowell Observatory-LONEOS MPS 92602
2003 11 30.09442 02 24 13.37 +14 18 28.0 20.3 V 291 – LPL/Spacewatch II MPS 92602
2003 11 30.11832 02 24 12.52 +14 18 22.4 20.2 V 291 – LPL/Spacewatch II MPS 92602
2003 11 30.14210 02 24 11.64 +14 18 16.7 20.2 V 291 – LPL/Spacewatch II MPS 92602
2005 02 09.28746 09 50 34.19 +08 43 29.1 19.6 R 699 – Lowell Observatory-LONEOS MPS 126689
2005 02 09.31182 09 50 32.85 +08 43 36.3   699 – Lowell Observatory-LONEOS MPS 126689
2005 02 09.33615 09 50 31.47 +08 43 44.9   699 – Lowell Observatory-LONEOS MPS 126689
2005 02 09.36049 09 50 30.07 +08 43 51.1   699 – Lowell Observatory-LONEOS MPS 126689
2005 02 14.17760 09 46 03.39 +09 07 00.9 20.0 V 691 – Steward Observatory, Kitt Peak-Spacewatch MPS 126689
2005 02 14.20307 09 46 01.95 +09 07 08.4 19.9 V 691 – Steward Observatory, Kitt Peak-Spacewatch MPS 126689
2005 02 14.22835 09 46 00.51 +09 07 16.0 19.9 V 691 – Steward Observatory, Kitt Peak-Spacewatch MPS 126689
2005 03 13.24081 09 24 18.40 +11 13 24.3 19.6 R G96 – Mt. Lemmon Survey MPS 128882
2005 03 13.24800 09 24 18.18 +11 13 25.9 19.5 R G96 – Mt. Lemmon Survey MPS 128882
2005 03 13.25524 09 24 17.91 +11 13 27.5 19.8 R G96 – Mt. Lemmon Survey MPS 128882
2005 03 13.26244 09 24 17.66 +11 13 29.1 19.9 R G96 – Mt. Lemmon Survey MPS 128882
2007 10 04.42219 02 40 40.84 +17 01 40.9   691 – Steward Observatory, Kitt Peak-Spacewatch MPS 218039
2007 10 04.43981 02 40 40.19 +17 01 37.0   691 – Steward Observatory, Kitt Peak-Spacewatch MPS 218039
2007 10 04.45744 02 40 39.55 +17 01 33.4   691 – Steward Observatory, Kitt Peak-Spacewatch MPS 218039
2007 10 05.32692 02 40 09.03 +16 58 31.4   691 – Steward Observatory, Kitt Peak-Spacewatch MPS 218039
2007 10 05.34454 02 40 08.40 +16 58 27.6   691 – Steward Observatory, Kitt Peak-Spacewatch MPS 218039
2007 10 05.36217 02 40 07.72 +16 58 23.5   691 – Steward Observatory, Kitt Peak-Spacewatch MPS 218039
2007 10 06.27396 02 39 34.29 +16 55 04.5 20.1   704 – Lincoln Laboratory ETS, New Mexico MPS 218421
